Flag for Turkey Weather past 2 weeks in Izmir, Turkey

Now
48 °F

Sprinkles. Partly cloudy.


Feels Like: 46 °F
Forecast: 47 / 55 °F
Wind: 5 mph from South

Location: Izmir / Adnan Menderes

Current Time: Jan 26, 2015 at 2:32:48 AM

Latest Report: Jan 26, 2015 at 1:50 AM


Visibility: N/A

Pressure: 29.98 "Hg

Humidity: 94%

Dew point: 46 °F

Location of IzmirLocation

Historic Weather in Izmir — Graph

°F

Izmir temperature yesterday

Maximum temperature yesterday: 61 °F (at 1:20 PM)
Minimum temperature yesterday: 46 °F (at 6:50 AM)
Average temperature yesterday: 52 °F

Past Weeks' High & Low Weather Summary

 TemperatureHumidityPressure
High70 °F (Jan 23, 1:50 PM)100% (Jan 15, 12:20 AM)30.36 "Hg (Jan 15, 12:20 AM)
Low27 °F (Jan 11, 6:20 AM)33% (Jan 23, 2:50 PM)29.74 "Hg (Jan 24, 12:20 AM)
Average49 °F77%30.07 "Hg
* Reported Jan 11 1:20 AM — Jan 26 1:20 AM, Izmir, Weather by CustomWeather, © 2014

Note: Actual official high and low records may vary slightly from our data, if they occured in-between our weather recording intervals... More about our weather records

Advertising

Izmir weather history for previous 24 hours

 ConditionsComfort  
Time TempWeatherWind HumidityBarometerVisibility
1:20 AM
Jan 26
48 °FSprinkles. Partly cloudy.5 mph94%29.95 "HgN/A
12:50 AM48 °FSprinkles. Partly cloudy.5 mph94%29.95 "HgN/A
12:20 AM48 °FSprinkles. Partly cloudy.5 mph94%29.95 "HgN/A
11:50 PM
Jan 25
48 °FSprinkles. Partly cloudy.6 mph94%29.95 "HgN/A
11:20 PM48 °FSprinkles. Partly cloudy.7 mph94%29.95 "HgN/A
10:50 PM48 °FSprinkles. Partly cloudy.8 mph94%29.95 "HgN/A
10:20 PM50 °FSprinkles. Partly cloudy.9 mph88%29.95 "HgN/A
9:50 PM50 °FSprinkles. Partly cloudy.13 mph88%29.92 "HgN/A
9:20 PM52 °FSprinkles. Partly cloudy.13 mph82%29.92 "HgN/A
8:50 PM52 °FPartly cloudy.3 mph77%29.92 "HgN/A
8:20 PM54 °FPartly cloudy.6 mph72%29.92 "HgN/A
7:50 PM54 °FPartly cloudy.6 mph67%29.92 "HgN/A
7:20 PM54 °FPartly cloudy.3 mph72%29.89 "HgN/A
6:50 PM54 °FPartly cloudy.3 mph72%29.89 "HgN/A
6:20 PM55 °FPartly cloudy.6 mph67%29.89 "HgN/A
5:50 PM55 °FPartly cloudy.7 mph72%29.89 "HgN/A
5:20 PM55 °FBroken clouds.6 mph77%29.89 "HgN/A
4:50 PM55 °FBroken clouds.7 mph72%29.86 "HgN/A
4:20 PM57 °FBroken clouds.12 mph67%29.86 "HgN/A
3:50 PM57 °FSunny.14 mph63%29.86 "Hg10 mi
3:20 PM59 °FBroken clouds.21 mph59%29.86 "HgN/A
2:50 PM61 °FBroken clouds.17 mph59%29.86 "HgN/A
2:20 PM61 °FBroken clouds.17 mph59%29.86 "HgN/A
1:50 PM59 °FBroken clouds.20 mph59%29.86 "HgN/A
1:20 PM61 °FBroken clouds.18 mph55%29.86 "HgN/A
12:50 PM59 °FBroken clouds.15 mph63%29.86 "HgN/A
12:20 PM57 °FBroken clouds.16 mph67%29.89 "HgN/A
11:50 AM57 °FBroken clouds.15 mph67%29.89 "HgN/A
11:20 AM55 °FBroken clouds.17 mph67%29.89 "HgN/A
10:50 AM55 °FBroken clouds.14 mph72%29.89 "HgN/A
10:20 AM54 °FBroken clouds.9 mph77%29.89 "HgN/A
9:50 AM52 °FBroken clouds.8 mph82%29.89 "HgN/A
9:20 AM50 °FBroken clouds.10 mph82%29.89 "HgN/A
8:50 AM50 °FBroken clouds.6 mph88%29.89 "HgN/A
8:20 AM48 °FBroken clouds.7 mph94%29.89 "HgN/A
7:50 AM46 °FBroken clouds.9 mph93%29.89 "HgN/A
7:20 AM46 °FSprinkles. Partly cloudy.6 mph100%29.89 "HgN/A
6:50 AM46 °FSprinkles. Partly cloudy.12 mph100%29.86 "HgN/A
6:20 AM48 °FSprinkles. Partly cloudy.12 mph94%29.86 "HgN/A
5:50 AM48 °FSprinkles. Partly cloudy.9 mph94%29.86 "HgN/A
5:20 AM48 °FSprinkles. Partly cloudy.8 mph94%29.86 "HgN/A
4:50 AM48 °FSprinkles. Partly cloudy.8 mph94%29.86 "HgN/A
4:20 AM48 °FSprinkles. Partly cloudy.7 mph94%29.86 "HgN/A
3:50 AM48 °FSprinkles. Partly cloudy.7 mph94%29.86 "HgN/A
3:20 AM48 °FSprinkles. Partly cloudy.10 mph94%29.86 "HgN/A
2:50 AM48 °FSprinkles. Partly cloudy.9 mph87%29.86 "HgN/A
2:20 AM48 °FSprinkles. Partly cloudy.8 mph94%29.86 "HgN/A
Weather by CustomWeather, © 2014

See weather overviewHow to use our weather pages